KLM315 LEIB-LEMH

Flight info

Callsign KLM315
Flight time 0h 37m
Altitude 22000
Route KABRE
Aircraft B738/M-SDE2E3FGHIRWXY/LB1

Departure

Time 2026-04-25 10:43
Airport Ibiza Airport (LEIB)

Arrival

Time 2026-04-25 11:20
Airport Menorca Airport (LEMH)
Time Latitude Longitude Altitude Speed Heading
2026-04-25 10:22 38.87540 1.37229 28 ft 0 kts 21°
2026-04-25 10:38 38.87549 1.37229 28 ft 5 kts 354°
2026-04-25 10:38 38.87576 1.37146 28 ft 17 kts 261°
2026-04-25 10:39 38.87515 1.36984 28 ft 21 kts 242°
2026-04-25 10:39 38.87449 1.36823 28 ft 23 kts 240°
2026-04-25 10:39 38.87335 1.36828 28 ft 18 kts 150°
2026-04-25 10:39 38.87247 1.36752 28 ft 23 kts 242°
2026-04-25 10:40 38.87147 1.36521 28 ft 33 kts 242°
2026-04-25 10:40 38.87046 1.36281 28 ft 28 kts 241°
2026-04-25 10:40 38.86964 1.36086 28 ft 22 kts 242°
2026-04-25 10:40 38.86891 1.35911 28 ft 26 kts 242°
2026-04-25 10:41 38.86809 1.35825 28 ft 11 kts 155°
2026-04-25 10:41 38.86792 1.35837 28 ft 2 kts 152°
2026-04-25 10:41 38.86736 1.35882 28 ft 16 kts 129°
2026-04-25 10:41 38.86741 1.36002 28 ft 2 kts 61°
2026-04-25 10:42 38.86742 1.36003 28 ft 0 kts 61°
2026-04-25 10:43 38.86763 1.36053 28 ft 27 kts 61°
2026-04-25 10:43 38.86999 1.36621 28 ft 115 kts 63°
2026-04-25 10:43 38.87477 1.37784 303 ft 165 kts 65°
2026-04-25 10:43 38.87911 1.39137 1440 ft 158 kts 77°
2026-04-25 10:44 38.88003 1.40532 2394 ft 163 kts 94°
2026-04-25 10:44 38.88012 1.42084 2931 ft 191 kts 80°
2026-04-25 10:44 38.88516 1.43756 3489 ft 209 kts 65°
2026-04-25 10:44 38.89083 1.45516 4331 ft 215 kts 71°
2026-04-25 10:45 38.89520 1.47384 5241 ft 219 kts 75°
2026-04-25 10:45 38.89898 1.49287 6230 ft 222 kts 76°
2026-04-25 10:45 38.90272 1.51225 7187 ft 225 kts 76°
2026-04-25 10:45 38.90624 1.53187 8112 ft 229 kts 81°
2026-04-25 10:46 38.90712 1.55248 8966 ft 235 kts 92°
2026-04-25 10:46 38.90577 1.57418 9589 ft 254 kts 96°
2026-04-25 10:46 38.90353 1.59747 10130 ft 273 kts 97°
2026-04-25 10:46 38.90111 1.62226 10855 ft 285 kts 97°
2026-04-25 10:47 38.89825 1.64758 11735 ft 290 kts 101°
2026-04-25 10:47 38.89273 1.67269 12619 ft 296 kts 109°
2026-04-25 10:47 38.88472 1.69769 13190 ft 313 kts 114°
2026-04-25 10:47 38.87510 1.72415 13606 ft 334 kts 115°
2026-04-25 10:48 38.86487 1.75179 14095 ft 350 kts 115°
2026-04-25 10:48 38.85438 1.78026 14858 ft 356 kts 114°
2026-04-25 10:48 38.84379 1.80911 15671 ft 361 kts 114°
2026-04-25 10:48 38.83311 1.83830 16492 ft 364 kts 114°
2026-04-25 10:49 38.82235 1.86775 17275 ft 367 kts 114°
2026-04-25 10:49 38.81363 1.89863 17995 ft 371 kts 101°
2026-04-25 10:49 38.81264 1.93168 18744 ft 375 kts 83°
2026-04-25 10:49 38.81858 1.96424 19471 ft 379 kts 73°
2026-04-25 10:50 38.82748 1.99618 20145 ft 383 kts 70°
2026-04-25 10:50 38.83744 2.02811 20794 ft 388 kts 69°
2026-04-25 10:50 38.84790 2.06010 21465 ft 391 kts 68°
2026-04-25 10:50 38.85848 2.09227 21930 ft 394 kts 68°
2026-04-25 10:51 38.86914 2.12463 22109 ft 393 kts 68°
2026-04-25 10:51 38.87987 2.15718 22139 ft 391 kts 68°
2026-04-25 10:51 38.89043 2.18915 22141 ft 389 kts 68°
2026-04-25 10:51 38.90097 2.22110 22141 ft 388 kts 68°
2026-04-25 10:52 38.91139 2.25264 22142 ft 388 kts 68°
2026-04-25 10:52 38.92205 2.28495 22142 ft 388 kts 68°
2026-04-25 10:52 38.93256 2.31680 22142 ft 389 kts 68°
2026-04-25 10:52 38.94319 2.34868 22142 ft 389 kts 68°
2026-04-25 10:53 38.95385 2.38053 22142 ft 389 kts 68°
2026-04-25 10:53 38.96449 2.41244 22142 ft 389 kts 68°
2026-04-25 10:53 38.97509 2.44436 22142 ft 389 kts 68°
2026-04-25 10:53 38.98571 2.47641 22142 ft 389 kts 68°
2026-04-25 10:54 38.99629 2.50841 22142 ft 389 kts 68°
2026-04-25 10:54 39.00340 2.52993 22141 ft 389 kts 68°
2026-04-25 10:54 39.01738 2.57234 22142 ft 389 kts 68°
2026-04-25 10:54 39.02802 2.60424 22142 ft 389 kts 68°
2026-04-25 10:55 39.03862 2.63623 22141 ft 389 kts 68°
2026-04-25 10:55 39.04928 2.66863 22142 ft 389 kts 68°
2026-04-25 10:55 39.05979 2.70073 22142 ft 389 kts 68°
2026-04-25 10:55 39.07025 2.73275 22142 ft 389 kts 68°
2026-04-25 10:56 39.08070 2.76486 22142 ft 389 kts 68°
2026-04-25 10:56 39.09110 2.79684 22142 ft 389 kts 68°
2026-04-25 10:56 39.10151 2.82892 22141 ft 389 kts 68°
2026-04-25 10:56 39.11192 2.86105 22142 ft 389 kts 68°
2026-04-25 10:57 39.12232 2.89314 22142 ft 389 kts 68°
2026-04-25 10:57 39.13279 2.92525 22141 ft 389 kts 67°
2026-04-25 10:57 39.14491 2.95637 22141 ft 390 kts 62°
2026-04-25 10:57 39.15964 2.98606 22142 ft 390 kts 56°
2026-04-25 10:58 39.17566 3.01437 22142 ft 391 kts 54°
2026-04-25 10:58 39.19201 3.04219 22142 ft 391 kts 54°
2026-04-25 10:58 39.20837 3.07009 22142 ft 391 kts 54°
2026-04-25 10:58 39.22470 3.09804 22141 ft 388 kts 54°
2026-04-25 10:59 39.24073 3.12556 22141 ft 381 kts 54°
2026-04-25 10:59 39.25653 3.15276 22141 ft 377 kts 54°
2026-04-25 10:59 39.27212 3.17963 22141 ft 374 kts 54°
2026-04-25 10:59 39.28769 3.20654 22085 ft 374 kts 54°
2026-04-25 11:00 39.30310 3.23318 21805 ft 367 kts 54°
2026-04-25 11:00 39.31822 3.25938 21449 ft 364 kts 54°
2026-04-25 11:00 39.33330 3.28552 21004 ft 362 kts 54°
2026-04-25 11:00 39.34829 3.31151 20561 ft 360 kts 54°
2026-04-25 11:01 39.36342 3.33749 20116 ft 358 kts 54°
2026-04-25 11:01 39.37836 3.36320 19676 ft 356 kts 54°
2026-04-25 11:01 39.39312 3.38868 19239 ft 354 kts 53°
2026-04-25 11:01 39.40784 3.41415 18804 ft 353 kts 53°
2026-04-25 11:02 39.42242 3.43941 18373 ft 351 kts 53°
2026-04-25 11:02 39.43693 3.46460 17944 ft 349 kts 53°
2026-04-25 11:02 39.45131 3.48960 17518 ft 347 kts 53°
2026-04-25 11:02 39.46574 3.51472 17093 ft 345 kts 53°
2026-04-25 11:03 39.48001 3.53957 16672 ft 344 kts 53°
2026-04-25 11:03 39.49417 3.56428 16254 ft 342 kts 53°
2026-04-25 11:03 39.50825 3.58885 15840 ft 340 kts 53°
2026-04-25 11:03 39.52244 3.61364 15421 ft 338 kts 53°
2026-04-25 11:04 39.53632 3.63766 15015 ft 336 kts 53°
2026-04-25 11:04 39.55024 3.66188 14607 ft 334 kts 53°
2026-04-25 11:04 39.56422 3.68629 14195 ft 333 kts 53°
2026-04-25 11:04 39.57331 3.70221 13929 ft 332 kts 53°
2026-04-25 11:05 39.59154 3.73420 13391 ft 329 kts 54°
2026-04-25 11:05 39.60507 3.75799 12993 ft 328 kts 54°
2026-04-25 11:05 39.61853 3.78170 12597 ft 326 kts 54°
2026-04-25 11:05 39.63196 3.80539 12198 ft 325 kts 54°
2026-04-25 11:06 39.64449 3.82751 11829 ft 323 kts 54°
2026-04-25 11:06 39.65772 3.85088 11441 ft 322 kts 54°
2026-04-25 11:06 39.67091 3.87420 11070 ft 320 kts 54°
2026-04-25 11:06 39.68401 3.89735 10878 ft 312 kts 54°
2026-04-25 11:07 39.69666 3.91972 10708 ft 304 kts 54°
2026-04-25 11:07 39.71072 3.93964 10532 ft 297 kts 37°
2026-04-25 11:07 39.72681 3.95047 10401 ft 291 kts 20°
2026-04-25 11:07 39.74730 3.95804 10228 ft 285 kts 14°
2026-04-25 11:08 39.76689 3.96095 9961 ft 284 kts
2026-04-25 11:08 39.78642 3.95787 9628 ft 285 kts 348°
2026-04-25 11:08 39.80542 3.94985 9233 ft 289 kts 340°
2026-04-25 11:08 39.82441 3.94183 8912 ft 288 kts 346°
2026-04-25 11:09 39.84400 3.93603 8595 ft 287 kts 351°
2026-04-25 11:09 39.86372 3.93354 8283 ft 285 kts 359°
2026-04-25 11:09 39.88374 3.93420 7970 ft 284 kts
2026-04-25 11:09 39.90316 3.93818 7661 ft 282 kts 15°
2026-04-25 11:10 39.92178 3.94539 7446 ft 273 kts 19°
2026-04-25 11:10 39.92776 3.94790 7368 ft 270 kts 19°
2026-04-25 11:10 39.95674 3.96222 6704 ft 264 kts 27°
2026-04-25 11:10 39.97266 3.97394 6276 ft 262 kts 32°
2026-04-25 11:11 39.98799 3.98658 5852 ft 261 kts 34°
2026-04-25 11:11 40.00255 4.00055 5419 ft 259 kts 41°
2026-04-25 11:11 40.01540 4.01672 5007 ft 256 kts 47°
2026-04-25 11:11 40.02731 4.03355 4788 ft 246 kts 49°
2026-04-25 11:12 40.03806 4.04998 4671 ft 232 kts 53°
2026-04-25 11:12 40.04663 4.06728 4469 ft 223 kts 62°
2026-04-25 11:12 40.05376 4.08474 4301 ft 213 kts 64°
2026-04-25 11:12 40.06024 4.10163 4192 ft 199 kts 65°
2026-04-25 11:13 40.06603 4.11729 4105 ft 183 kts 68°
2026-04-25 11:13 40.06976 4.13275 3855 ft 177 kts 77°
2026-04-25 11:13 40.07246 4.14840 3520 ft 177 kts 79°
2026-04-25 11:13 40.07489 4.16399 3207 ft 175 kts 79°
2026-04-25 11:14 40.07728 4.17948 2899 ft 173 kts 79°
2026-04-25 11:14 40.07923 4.19394 2597 ft 173 kts 84°
2026-04-25 11:14 40.07943 4.20955 2313 ft 172 kts 92°
2026-04-25 11:14 40.07884 4.22517 2002 ft 173 kts 94°
2026-04-25 11:15 40.07589 4.24014 1855 ft 172 kts 127°
2026-04-25 11:15 40.06603 4.24849 1882 ft 167 kts 162°
2026-04-25 11:15 40.05466 4.25138 1916 ft 168 kts 174°
2026-04-25 11:15 40.04290 4.25171 1919 ft 170 kts 182°
2026-04-25 11:16 40.01919 4.24987 1906 ft 170 kts 185°
2026-04-25 11:16 40.00779 4.24815 1878 ft 161 kts 187°
2026-04-25 11:16 39.99712 4.24616 1891 ft 151 kts 188°
2026-04-25 11:17 39.99030 4.24482 1872 ft 147 kts 188°
2026-04-25 11:17 39.98015 4.24277 2002 ft 150 kts 189°
2026-04-25 11:17 39.96965 4.24063 2089 ft 151 kts 189°
2026-04-25 11:17 39.95944 4.23854 1940 ft 146 kts 189°
2026-04-25 11:18 39.94951 4.23649 1817 ft 143 kts 188°
2026-04-25 11:18 39.93974 4.23448 1637 ft 142 kts 188°
2026-04-25 11:18 39.93001 4.23248 1450 ft 141 kts 187°
2026-04-25 11:18 39.92033 4.23049 1264 ft 141 kts 187°
2026-04-25 11:19 39.91066 4.22849 1076 ft 141 kts 187°
2026-04-25 11:19 39.90099 4.22650 890 ft 141 kts 187°
2026-04-25 11:19 39.89129 4.22451 703 ft 140 kts 187°
2026-04-25 11:19 39.88175 4.22258 544 ft 138 kts 187°
2026-04-25 11:20 39.87211 4.22048 348 ft 140 kts 188°
2026-04-25 11:20 39.86308 4.21853 306 ft 112 kts 186°
2026-04-25 11:20 39.85822 4.21779 306 ft 50 kts 187°
2026-04-25 11:20 39.85554 4.21775 306 ft 38 kts 161°
2026-04-25 11:21 39.85412 4.21868 306 ft 12 kts 92°
2026-04-25 11:21 39.85534 4.21943 306 ft 32 kts
2026-04-25 11:21 39.85769 4.21996 306 ft 33 kts
2026-04-25 11:21 39.85981 4.22040 306 ft 31 kts 11°
2026-04-25 11:22 39.86184 4.22088 306 ft 15 kts 40°
2026-04-25 11:22 39.86191 4.22223 306 ft 18 kts 77°
2026-04-25 11:22 39.86277 4.22274 306 ft 14 kts
2026-04-25 11:22 39.86392 4.22296 306 ft 15 kts
2026-04-25 11:23 39.86434 4.22335 306 ft 8 kts 84°
2026-04-25 11:23 39.86430 4.22391 306 ft 0 kts 100°